Warning: Javascript must be enabled to use all the features on this page!


Page Loading - Please Wait...

Click to hideNews Bulletins
Click to hide state-specific text

Explore Real-time Water Data Using New Products from USGS TXWSC

View over 750 USGS real-time stream, lake, reservoir, precipitation, and groundwater stations in context with current weather and hazard conditions on both desktop and mobile devices.

Click to go to the Texas Water Dashboard Click to go to the WATER On-the-go app

Follow @USGS_TexasFlood and @USGS_TexasRain on Twitter to get current water level and precipitation data during flooding or severe rainfall events.


* IMPORTANT: Next Generation Station Page

USGS 08195000 Frio Rv at Concan, TX

PROVISIONAL DATA SUBJECT TO REVISION

Click to hidestation-specific text
Funding for this site is provided by the cooperators / programs below:
Click to go to the Edwards Aquifer Authority web page

Edwards Aquifer Authority

Click to go to the Cooperative Matching Funds web page

Cooperative Matching Funds

 

Rainfall Disclaimer


retransmission, forecasts and summary of this location by the National Weather Service
Retransmission, forecasts and summary by the National Weather Service
This station managed by the San Antonio Field Unit.

Available Parameters Available Period
All 6 Available Parameters for this site
  
00010 Temperature, water 2013-07-25  2019-02-22
00045 Precipitation 2018-10-25  2019-02-22
00060 Discharge 1991-10-01  2019-02-22
00065 Gage height 2007-10-01  2019-02-22
00095 Specific cond at 25C 2013-07-02  2019-02-22
99133 NO3+NO2,water,insitu 2015-09-24  2019-02-22

Graph
Graph w/ stats
Graph w/o stats
Graph w/ (up to 3) parms
Table
Tab-separated
Days  (2)
 

  -- or --
Begin date
 

End date
 

Summary of all available data for this site
Instantaneous-data availability statement






Date / Time




Gage
height,
feet,




Dis-
charge,
ft3/s,



Precip-
itation
total,
inches,
Specif-
ic
conduc-
tance,
wat unf
uS/cm @
25 degC,



Temper-
ature,
water,
deg C,

Nitrate
+
nitrite
water,
in situ
mg/L as,
02/20/2019 00:00 CST3.92P  113P  0.00P  446P  14.1P  0.85P  
02/20/2019 00:15 CST3.92P  113P  0.00P  446P  14.1P     
02/20/2019 00:30 CST3.92P  113P  0.00P  446P  14.0P     
02/20/2019 00:45 CST3.93P  116P  0.00P  446P  14.0P     
02/20/2019 01:00 CST3.92P  113P  0.00P  446P  13.9P  0.85P  
02/20/2019 01:15 CST3.92P  113P  0.00P  446P  13.9P     
02/20/2019 01:30 CST3.92P  113P  0.00P  446P  13.8P     
02/20/2019 01:45 CST3.92P  113P  0.00P  446P  13.8P     
02/20/2019 02:00 CST3.92P  113P  0.00P  446P  13.7P  0.86P  
02/20/2019 02:15 CST3.92P  113P  0.00P  446P  13.7P     
02/20/2019 02:30 CST3.92P  113P  0.00P  446P  13.6P     
02/20/2019 02:45 CST3.92P  113P  0.00P  447P  13.6P     
02/20/2019 03:00 CST3.92P  113P  0.00P  447P  13.5P  0.86P  
02/20/2019 03:15 CST3.92P  113P  0.00P  447P  13.5P     
02/20/2019 03:30 CST3.92P  113P  0.00P  447P  13.4P     
02/20/2019 03:45 CST3.92P  113P  0.00P  447P  13.4P     
02/20/2019 04:00 CST3.92P  113P  0.00P  447P  13.3P  0.86P  
02/20/2019 04:15 CST3.92P  113P  0.00P  448P  13.3P     
02/20/2019 04:30 CST3.92P  113P  0.00P  448P  13.2P     
02/20/2019 04:45 CST3.92P  113P  0.00P  448P  13.2P     
02/20/2019 05:00 CST3.92P  113P  0.00P  448P  13.1P  0.86P  
02/20/2019 05:15 CST3.91P  110P  0.00P  448P  13.1P     
02/20/2019 05:30 CST3.92P  113P  0.00P  448P  13.0P     
02/20/2019 05:45 CST3.92P  113P  0.00P  449P  13.0P     
02/20/2019 06:00 CST3.92P  113P  0.00P  449P  13.0P  0.86P  
02/20/2019 06:15 CST3.92P  113P  0.00P  449P  12.9P     
02/20/2019 06:30 CST3.92P  113P  0.00P  449P  12.9P     
02/20/2019 06:45 CST3.92P  113P  0.00P  449P  12.8P     
02/20/2019 07:00 CST3.92P  113P  0.00P  449P  12.8P  0.87P  
02/20/2019 07:15 CST3.92P  113P  0.00P  449P  12.7P     
02/20/2019 07:30 CST3.92P  113P  0.00P  450P  12.7P     
02/20/2019 07:45 CST3.92P  113P  0.00P  450P  12.7P     
02/20/2019 08:00 CST3.92P  113P  0.00P  450P  12.6P  0.87P  
02/20/2019 08:15 CST3.92P  113P  0.00P  450P  12.6P     
02/20/2019 08:30 CST3.92P  113P  0.00P  450P  12.6P     
02/20/2019 08:45 CST3.92P  113P  0.00P  450P  12.6P     
02/20/2019 09:00 CST3.92P  113P  0.00P  450P  12.7P  0.87P  
02/20/2019 09:15 CST3.91P  110P  0.00P  451P  12.7P     
02/20/2019 09:30 CST3.92P  113P  0.00P  451P  12.8P     
02/20/2019 09:45 CST3.91P  110P  0.00P  452P  12.8P     
02/20/2019 10:00 CST3.92P  113P  0.00P  452P  12.9P  0.87P  
02/20/2019 10:15 CST3.92P  113P  0.00P  453P  12.9P     
02/20/2019 10:30 CST3.92P  113P  0.00P  453P  13.0P     
02/20/2019 10:45 CST3.92P  113P  0.00P  454P  13.0P     
02/20/2019 11:00 CST3.92P  113P  0.00P  455P  13.1P  0.87P  
02/20/2019 11:15 CST3.92P  113P  0.00P  456P  13.2P     
02/20/2019 11:30 CST3.92P  113P  0.00P  456P  13.3P     
02/20/2019 11:45 CST3.92P  113P  0.00P  456P  13.4P     
02/20/2019 12:00 CST3.92P  113P  0.00P  456P     0.87P  
02/20/2019 12:15 CST3.92P  113P  0.00P           
02/20/2019 12:30 CST3.92P  113P  0.00P           
02/20/2019 12:45 CST3.92P  113P  0.00P           
02/20/2019 13:00 CST3.92P  113P  0.00P  449P     0.88P  
02/20/2019 13:15 CST3.92P  113P  0.00P  448P        
02/20/2019 13:30 CST3.92P  113P  0.00P  450P  14.6P     
02/20/2019 13:45 CST3.92P  113P  0.00P  450P  14.7P     
02/20/2019 14:00 CST3.92P  113P  0.00P  450P  14.8P  0.88P  
02/20/2019 14:15 CST3.92P  113P  0.00P  450P  14.9P     
02/20/2019 14:30 CST3.92P  113P  0.00P  451P  15.0P     
02/20/2019 14:45 CST3.92P  113P  0.00P  454P  15.1P     
02/20/2019 15:00 CST3.92P  113P  0.00P  454P  15.2P  0.88P  
02/20/2019 15:15 CST3.92P  113P  0.00P  455P  15.3P     
02/20/2019 15:30 CST3.92P  113P  0.00P  456P  15.4P     
02/20/2019 15:45 CST3.92P  113P  0.00P  455P  15.5P     
02/20/2019 16:00 CST3.92P  113P  0.00P  456P  15.6P  0.87P  
02/20/2019 16:15 CST3.93P  116P  0.00P  456P  15.6P     
02/20/2019 16:30 CST3.92P  113P  0.00P  456P  15.7P     
02/20/2019 16:45 CST3.92P  113P  0.00P  456P  15.7P     
02/20/2019 17:00 CST3.92P  113P  0.00P  456P  15.8P  0.87P  
02/20/2019 17:15 CST3.92P  113P  0.00P  456P  15.8P     
02/20/2019 17:30 CST3.92P  113P  0.00P  455P  15.8P     
02/20/2019 17:45 CST3.92P  113P  0.00P  455P  15.8P     
02/20/2019 18:00 CST3.92P  113P  0.00P  454P  15.8P  0.87P  
02/20/2019 18:15 CST3.92P  113P  0.00P  454P  15.8P     
02/20/2019 18:30 CST3.92P  113P  0.00P  454P  15.8P     
02/20/2019 18:45 CST3.92P  113P  0.00P  454P  15.7P     
02/20/2019 19:00 CST3.92P  113P  0.00P  453P  15.7P  0.86P  
02/20/2019 19:15 CST3.92P  113P  0.00P  453P  15.7P     
02/20/2019 19:30 CST3.92P  113P  0.00P  453P  15.6P     
02/20/2019 19:45 CST3.92P  113P  0.00P  453P  15.6P     
02/20/2019 20:00 CST3.92P  113P  0.00P  453P  15.5P  0.87P  
02/20/2019 20:15 CST3.92P  113P  0.00P  454P  15.4P     
02/20/2019 20:30 CST3.92P  113P  0.00P  455P  15.4P     
02/20/2019 20:45 CST3.92P  113P  0.00P  454P  15.4P     
02/20/2019 21:00 CST3.92P  113P  0.00P  454P  15.3P  0.86P  
02/20/2019 21:15 CST3.92P  113P  0.00P  455P  15.2P     
02/20/2019 21:30 CST3.92P  113P  0.00P  454P  15.2P     
02/20/2019 21:45 CST3.92P  113P  0.00P  454P  15.1P     
02/20/2019 22:00 CST3.92P  113P  0.00P  454P  15.0P  0.86P  
02/20/2019 22:15 CST3.92P  113P  0.00P  454P  15.0P     
02/20/2019 22:30 CST3.92P  113P  0.00P  455P  14.9P     
02/20/2019 22:45 CST3.92P  113P  0.00P  456P  14.8P     
02/20/2019 23:00 CST3.92P  113P  0.00P  457P  14.8P  0.86P  
02/20/2019 23:15 CST3.92P  113P  0.00P  457P  14.7P     
02/20/2019 23:30 CST3.92P  113P  0.00P  458P  14.6P     
02/20/2019 23:45 CST3.92P  113P  0.00P  458P  14.6P     
02/21/2019 00:00 CST3.92P  113P  0.00P  457P  14.5P  0.86P  
02/21/2019 00:15 CST3.92P  113P  0.00P  457P  14.4P     
02/21/2019 00:30 CST3.92P  113P  0.00P  457P  14.4P     
02/21/2019 00:45 CST3.92P  113P  0.00P  457P  14.3P     
02/21/2019 01:00 CST3.92P  113P  0.00P  456P  14.3P  0.87P  
02/21/2019 01:15 CST3.92P  113P  0.00P  456P  14.2P     
02/21/2019 01:30 CST3.92P  113P  0.00P  457P  14.2P     
02/21/2019 01:45 CST3.92P  113P  0.00P  457P  14.1P     
02/21/2019 02:00 CST3.92P  113P  0.00P  457P  14.1P  0.87P  
02/21/2019 02:15 CST3.92P  113P  0.00P  457P  14.1P     
02/21/2019 02:30 CST3.92P  113P  0.00P  458P  14.0P     
02/21/2019 02:45 CST3.92P  113P  0.00P  458P  14.0P     
02/21/2019 03:00 CST3.92P  113P  0.00P  458P  14.0P  0.86P  
02/21/2019 03:15 CST3.91P  110P  0.00P  458P  14.0P     
02/21/2019 03:30 CST3.92P  113P  0.00P  458P  14.0P     
02/21/2019 03:45 CST3.92P  113P  0.00P  459P  14.0P     
02/21/2019 04:00 CST3.92P  113P  0.00P  459P  14.0P  0.87P  
02/21/2019 04:15 CST3.92P  113P  0.00P  459P  14.0P     
02/21/2019 04:30 CST3.92P  113P  0.00P  459P  14.0P     
02/21/2019 04:45 CST3.92P  113P  0.00P  459P  14.0P     
02/21/2019 05:00 CST3.92P  113P  0.00P  459P  14.0P  0.87P  
02/21/2019 05:15 CST3.92P  113P  0.00P  460P  14.0P     
02/21/2019 05:30 CST3.92P  113P  0.00P  460P  14.0P     
02/21/2019 05:45 CST3.91P  110P  0.00P  460P  14.0P     
02/21/2019 06:00 CST3.92P  113P  0.00P  460P  14.0P  0.87P  
02/21/2019 06:15 CST3.92P  113P  0.00P  461P  14.0P     
02/21/2019 06:30 CST3.92P  113P  0.00P  461P  14.0P     
02/21/2019 06:45 CST3.92P  113P  0.00P  461P  14.0P     
02/21/2019 07:00 CST3.92P  113P  0.00P  462P  13.9P  0.87P  
02/21/2019 07:15 CST3.92P  113P  0.00P  462P  13.9P     
02/21/2019 07:30 CST3.92P  113P  0.00P  463P  13.9P     
02/21/2019 07:45 CST3.91P  110P  0.00P  463P  13.9P     
02/21/2019 08:00 CST3.92P  113P  0.00P  464P  13.9P  0.87P  
02/21/2019 08:15 CST3.92P  113P  0.00P  464P  13.9P     
02/21/2019 08:30 CST3.92P  113P  0.00P  465P  13.9P     
02/21/2019 08:45 CST3.92P  113P  0.00P  465P  13.9P     
02/21/2019 09:00 CST3.92P  113P  0.00P  465P  13.9P  0.87P  
02/21/2019 09:15 CST3.92P  113P  0.00P  465P  13.9P     
02/21/2019 09:30 CST3.92P  113P  0.00P  466P  13.8P     
02/21/2019 09:45 CST3.92P  113P  0.00P  466P  13.8P     
02/21/2019 10:00 CST3.91P  110P  0.00P  466P  13.8P  0.87P  
02/21/2019 10:15 CST3.92P  113P  0.00P  467P  13.8P     
02/21/2019 10:30 CST3.92P  113P  0.00P  467P  13.8P     
02/21/2019 10:45 CST3.92P  113P  0.00P  468P  13.8P     
02/21/2019 11:00 CST3.92P  113P  0.00P  468P  13.8P  0.87P  
02/21/2019 11:15 CST3.92P  113P  0.00P  468P  13.9P     
02/21/2019 11:30 CST3.91P  110P  0.00P  468P  13.9P     
02/21/2019 11:45 CST3.92P  113P  0.00P  468P  13.9P     
02/21/2019 12:00 CST3.92P  113P  0.00P  468P  13.9P  0.87P  
02/21/2019 12:15 CST3.92P  113P  0.00P  468P  13.9P     
02/21/2019 12:30 CST3.92P  113P  0.00P  469P  13.9P     
02/21/2019 12:45 CST3.92P  113P  0.00P  469P  14.0P     
02/21/2019 13:00 CST3.92P  113P  0.00P  469P  14.0P  0.87P  
02/21/2019 13:15 CST3.92P  113P  0.00P  469P  14.1P     
02/21/2019 13:30 CST3.92P  113P  0.00P  469P  14.2P     
02/21/2019 13:45 CST3.92P  113P  0.00P  469P  14.3P     
02/21/2019 14:00 CST3.92P  113P  0.00P  469P  14.4P  0.87P  
02/21/2019 14:15 CST3.92P  113P  0.00P  468P  14.5P     
02/21/2019 14:30 CST3.92P  113P  0.00P  469P  14.6P     
02/21/2019 14:45 CST3.92P  113P  0.00P  469P  14.7P     
02/21/2019 15:00 CST3.92P  113P  0.00P  469P  14.8P  0.87P  
02/21/2019 15:15 CST3.92P  113P  0.00P  469P  14.8P     
02/21/2019 15:30 CST3.92P  113P  0.00P  466P  15.0P     
02/21/2019 15:45 CST3.92P  113P  0.00P  467P  15.1P     
02/21/2019 16:00 CST3.92P  113P  0.00P  466P  15.2P  0.86P  
02/21/2019 16:15 CST3.92P  113P  0.00P  466P  15.3P     
02/21/2019 16:30 CST3.92P  113P  0.00P  466P  15.4P     
02/21/2019 16:45 CST3.92P  113P  0.00P  467P  15.4P     
02/21/2019 17:00 CST3.92P  113P  0.00P  466P  15.4P  0.86P  
02/21/2019 17:15 CST3.92P  113P  0.00P  465P  15.4P     
02/21/2019 17:30 CST3.92P  113P  0.00P  465P  15.4P     
02/21/2019 17:45 CST3.92P  113P  0.00P  464P  15.4P     
02/21/2019 18:00 CST3.92P  113P  0.00P  464P  15.4P  0.86P  
02/21/2019 18:15 CST3.92P  113P  0.00P  463P  15.4P     
02/21/2019 18:30 CST3.92P  113P  0.00P  463P  15.4P     
02/21/2019 18:45 CST3.91P  110P  0.00P  463P  15.4P     
02/21/2019 19:00 CST3.92P  113P  0.00P  462P  15.4P  0.86P  
02/21/2019 19:15 CST3.92P  113P  0.00P  462P  15.4P     
02/21/2019 19:30 CST3.92P  113P  0.00P  463P  15.4P     
02/21/2019 19:45 CST3.92P  113P  0.00P  462P  15.4P     
02/21/2019 20:00 CST3.91P  110P  0.00P  462P  15.4P  0.86P  
02/21/2019 20:15 CST3.92P  113P  0.00P  462P  15.4P     
02/21/2019 20:30 CST3.92P  113P  0.00P  462P  15.5P     
02/21/2019 20:45 CST3.91P  110P  0.00P  463P  15.5P     
02/21/2019 21:00 CST3.92P  113P  0.00P  463P  15.5P  0.86P  
02/21/2019 21:15 CST3.92P  113P  0.00P  464P  15.5P     
02/21/2019 21:30 CST3.92P  113P  0.00P  464P  15.5P     
02/21/2019 21:45 CST3.92P  113P  0.00P  464P  15.5P     
02/21/2019 22:00 CST3.92P  113P  0.00P  463P  15.4P  0.86P  
02/21/2019 22:15 CST3.92P  113P  0.00P  463P  15.4P     
02/21/2019 22:30 CST3.92P  113P  0.00P  463P  15.4P     
02/21/2019 22:45 CST3.92P  113P  0.00P  462P  15.4P     
02/21/2019 23:00 CST3.92P  113P  0.00P  462P  15.4P  0.86P  
02/21/2019 23:15 CST3.91P  110P  0.00P  462P  15.4P     
02/21/2019 23:30 CST3.92P  113P  0.00P  462P  15.3P     
02/21/2019 23:45 CST3.92P  113P  0.00P  462P  15.3P     
02/22/2019 00:00 CST3.92P  113P  0.00P  461P  15.3P  0.86P  
02/22/2019 00:15 CST3.92P  113P  0.00P  461P  15.3P     
02/22/2019 00:30 CST3.91P  110P  0.00P  461P  15.2P     
02/22/2019 00:45 CST3.92P  113P  0.00P  460P  15.2P     
02/22/2019 01:00 CST3.92P  113P  0.00P  460P  15.2P  0.86P  
02/22/2019 01:15 CST3.92P  113P  0.00P  459P  15.2P     
02/22/2019 01:30 CST3.92P  113P  0.00P  459P  15.2P     
02/22/2019 01:45 CST3.92P  113P  0.00P  460P  15.2P     
02/22/2019 02:00 CST3.92P  113P  0.00P  460P  15.2P  0.86P  
02/22/2019 02:15 CST3.92P  113P  0.00P  460P  15.1P     
02/22/2019 02:30 CST3.92P  113P  0.00P  461P  15.1P     
02/22/2019 02:45 CST3.92P  113P  0.00P  461P  15.1P     
02/22/2019 03:00 CST3.92P  113P  0.00P  461P  15.1P  0.86P  
02/22/2019 03:15 CST3.92P  113P  0.00P  461P  15.1P     
02/22/2019 03:30 CST3.92P  113P  0.00P  461P  15.1P     
02/22/2019 03:45 CST3.92P  113P  0.00P  461P  15.1P     
02/22/2019 04:00 CST3.92P  113P  0.00P  461P  15.1P  0.86P  
02/22/2019 04:15 CST3.92P  113P  0.00P  461P  15.0P     
02/22/2019 04:30 CST3.92P  113P  0.00P  461P  15.0P     
02/22/2019 04:45 CST3.92P  113P  0.00P  461P  15.0P     
02/22/2019 05:00 CST3.92P  113P  0.00P  461P  15.0P  0.86P  
02/22/2019 05:15 CST3.91P  110P  0.00P  461P  15.0P     
02/22/2019 05:30 CST3.91P  110P  0.00P  461P  15.0P     
02/22/2019 05:45 CST3.92P  113P  0.00P  461P  14.9P     
02/22/2019 06:00 CST3.92P  113P  0.00P  461P  14.9P  0.86P  
02/22/2019 06:15 CST3.92P  113P  0.00P  461P  14.9P     
02/22/2019 06:30 CST3.92P  113P  0.00P  462P  14.9P     
02/22/2019 06:45 CST3.92P  113P  0.00P  462P  14.9P     
02/22/2019 07:00 CST3.92P  113P  0.00P  462P  14.9P  0.86P  
02/22/2019 07:15 CST3.92P  113P  0.01P  462P  14.9P     
02/22/2019 07:30 CST3.92P  113P  0.00P  462P  14.8P     
02/22/2019 07:45 CST3.91P  110P  0.00P  462P  14.8P     
02/22/2019 08:00 CST3.92P  113P  0.00P  463P  14.8P  0.86P  
02/22/2019 08:15 CST3.92P  113P  0.00P  463P  14.8P     
02/22/2019 08:30 CST3.92P  113P  0.00P  464P  14.8P     
02/22/2019 08:45 CST3.92P  113P  0.00P  464P  14.8P     
02/22/2019 09:00 CST3.92P  113P  0.00P  465P  14.8P  0.86P  
02/22/2019 09:15 CST3.92P  113P  0.00P  465P  14.8P     
02/22/2019 09:30 CST3.92P  113P  0.00P  466P  14.8P     
02/22/2019 09:45 CST3.92P  113P  0.00P  466P  14.9P     
02/22/2019 10:00 CST3.92P  113P  0.00P  466P  14.9P  0.86P  
02/22/2019 10:15 CST3.92P  113P  0.00P  466P  14.9P     
02/22/2019 10:30 CST3.92P  113P  0.00P  467P  14.9P     
02/22/2019 10:45 CST3.92P  113P  0.00P  467P  14.9P     
02/22/2019 11:00 CST3.92P  113P  0.00P  467P  15.0P  0.86P  
02/22/2019 11:15 CST3.92P  113P  0.00P  468P  15.0P     
02/22/2019 11:30 CST3.92P  113P  0.00P  468P  15.0P     
02/22/2019 11:45 CST3.92P  113P  0.00P  469P  15.0P     
02/22/2019 12:00 CST3.92P  113P  0.00P  469P  15.1P  0.86P  
02/22/2019 12:15 CST3.92P  113P  0.00P  469P  15.1P     
02/22/2019 12:30 CST3.92P  113P  0.00P  470P  15.2P     
02/22/2019 12:45 CST3.92P  113P  0.00P  470P  15.2P     
02/22/2019 13:00 CST3.92P  113P  0.00P  470P  15.3P  0.86P  
02/22/2019 13:15 CST3.92P  113P  0.00P  470P  15.3P     
02/22/2019 13:30 CST3.91P  110P  0.00P  470P  15.4P     
02/22/2019 13:45 CST3.92P  113P  0.00P  470P  15.4P     
02/22/2019 14:00 CST3.92P  113P  0.00P  469P  15.5P  0.86P  
02/22/2019 14:15 CST3.92P  113P  0.00P  469P  15.6P     
02/22/2019 14:30 CST3.91P  110P  0.00P  468P  15.7P     
02/22/2019 14:45 CST3.91P  110P  0.00P  468P  15.8P     
02/22/2019 15:00 CST3.92P  113P  0.00P  467P  15.9P  0.86P  
02/22/2019 15:15 CST3.92P  113P  0.00P  466P  16.0P     
02/22/2019 15:30 CST3.92P  113P  0.00P  465P  16.2P     
02/22/2019 15:45 CST3.92P  113P  0.00P  464P  16.3P     
02/22/2019 16:00 CST3.92P  113P  0.00P  464P  16.4P  0.86P  
02/22/2019 16:15 CST3.92P  113P  0.00P  464P  16.5P     
02/22/2019 16:30 CST3.92P  113P  0.00P  464P  16.6P     
02/22/2019 16:45 CST3.92P  113P  0.00P  464P  16.7P     
02/22/2019 17:00 CST3.92P  113P  0.00P  464P  16.7P  0.86P  
02/22/2019 17:15 CST3.92P  113P  0.00P  465P  16.8P     
02/22/2019 17:30 CST3.92P  113P  0.00P  465P  16.8P     
02/22/2019 17:45 CST3.91P  110P  0.00P  465P  16.8P     
02/22/2019 18:00 CST3.92P  113P  0.00P  465P  16.8P  0.85P  
02/22/2019 18:15 CST3.92P  113P  0.00P  465P  16.8P     
02/22/2019 18:30 CST3.92P  113P  0.00P  464P  16.8P     
02/22/2019 18:45 CST3.92P  113P  0.00P  464P  16.8P     
02/22/2019 19:00 CST3.92P  113P  0.00P  464P  16.8P  0.85P  
02/22/2019 19:15 CST3.92P  113P  0.00P  464P  16.8P     
02/22/2019 19:30 CST3.92P  113P  0.00P  464P  16.8P     
02/22/2019 19:45 CST3.92P  113P  0.00P  464P  16.8P     
02/22/2019 20:00 CST3.92P  113P  0.00P  463P  16.8P  0.85P  
02/22/2019 20:15 CST3.92P  113P  0.00P  464P  16.8P     

Explanation
  P  Provisional data subject to revision.